Regional Weather Roundup
Issued by NWS Bismarck, ND

Home | Current Version | Previous Version | Text Only | Print | Product List | Glossary On
Versions: 1 2 3 4 5 6 7 8 9 10 11 12 13 14 15 16 17 18 19 20 21 22 23 24 25 26 27 28 29 30 31 32 33 34 35 36 37 38 39 40 41 42 43 44 45 46 47 48 49 50
000
ASUS43 KBIS 231220
RWRBIS

NWR BROADCAST TEXT
NATIONAL WEATHER SERVICE BISMARCK ND
700 AM CDT SAT MAY 23 2015

NOTE: "FAIR" INDICATES FEW OR NO CLOUDS BELOW 12,000 FEET WITH NO
SIGNIFICANT WEATHER AND/OR OBSTRUCTIONS TO VISIBILITY.


CITY           SKY/WX    TMP DP  RH WIND       PRES   REMARKS
WILLISTON      CLEAR     46  38  73 N6        30.12R
MINOT          CLEAR     49  40  71 S3        30.14R
MINOT AFB      MOCLDY    48  46  91 S8        30.13R
BISMARCK       CLEAR     46  43  89 CALM      30.17S
DICKINSON      PTCLDY    40  37  89 E7        30.11R
GARRISON         N/A     48  43  82 CALM      30.14S
HETTINGER ARPT MOCLDY    42  39  89 E9        30.12S
JAMESTOWN      CLEAR     50  43  77 SW3       30.18R
BEACH          FAIR      43  43 100 SE9       30.10R
CARRINGTON     FAIR      52  48  87 SW9       30.18S
CROSBY         FAIR      48  41  76 S9        30.14R
HARVEY         FAIR      48  45  87 SW5       30.16R
HAZEN          FAIR      39  37  93 CALM      30.16S
LINTON         FAIR      45  45 100 SE5       30.17S
MANDAN         FAIR      46  45  93 SE3       30.17S
OAKES            N/A     46  46 100 SE3       30.20S
STANLEY        FAIR      45  45 100 CALM      30.15S
TIOGA          FAIR      41  41 100 CALM      30.17S
WATFORD CITY   FAIR      41  36  81 N3        30.11R
$$

CITY           SKY/WX    TMP DP  RH WIND       PRES   REMARKS
GRAND FORKS    MOSUNNY   49  42  77 S6        30.14R
GRAND FORKS AF SUNNY     46  41  85 CALM      30.14R
DEVILS LAKE    SUNNY     54  43  66 SW7       30.15R
FARGO          SUNNY     53  46  77 S7        30.19R
CANDO          FAIR      46  43  87 CALM      30.14R
CAVALIER       FAIR      50  43  76 S3        30.13S
GRAFTON        FAIR      50  48  93 S5        30.15S
LANGDON        FAIR      52  41  66 S6        30.15S
ROLLA          FAIR      59  37  44 W12       30.14R
WALHALLA       FAIR      55  36  47 SW3       30.13S
$$

CITY           SKY/WX    TMP DP  RH WIND       PRES   REMARKS
ABERDEEN       CLOUDY    49  44  83 CALM      30.20S
MOBRIDGE       CLOUDY    49  45  86 E7        30.13F
BUFFALO          N/A     44  41  89 E10       30.00S
RAPID CITY     CLOUDY    47  44  90 SE10      30.06R
GLASGOW        CLOUDY    54  41  61 E10       30.05R
SIDNEY         PTCLDY    46  37  71 NW3       30.12R
WOLF POINT     PTCLDY    49  40  71 E7        30.09R
GLENDIVE       CLEAR     45  39  81 E5        30.09R
MILES CITY     PTCLDY    45  39  79 NE6       30.02R
BAKER          MOCLDY    41  38  89 SE12      30.07S
$$

CITY           SKY/WX    TMP DP  RH WIND       PRES   REMARKS
BILLINGS       CLOUDY    50  45  83 NE8       29.97R
GREAT FALLS    CLOUDY    48  43  82 N6        30.03R
REGINA         MOCLDY    50  39  66 E9        30.12R
ESTEVAN        MOCLDY    48  39  71 SW5       30.13R
$$




USA.gov is the U.S. government's official web portal to all federal, state and local government web resources and services.